COSMOS 886 DEB

Satellite information

Favourite Embed

Satellite Type and Status

DEBRISIN ORBIT

Key statistics

Satellite COSMOS 886 DEB at a glance.

Uptime

17833

Days in orbit

Revolutions

≈ 13.3

Per day

Orbit

LEO

Low Earth Orbit

Inclination

65.8

Latest

Satellite identification and parameters

Extended collection of information and parameters for COSMOS 886 DEB.

Object identification

Identified? True

Debris? True

Object name: COSMOS 886 DEB

International designator: 1976-126K

Object number (NORAD): 9653

Object ID (CCSDS): 9653

Country: COMMONWEALTH OF INDEPENDENT STATES (CIS)

Current information (Y/N): Y

RCS size: SMALL

Orbital parameters

Period: 108.364 minutes

Inclination: 65.7706 deg

SMA: 7529.207 km

Apoapsis: 1753.561 km

Periapsis: 548.582 km

RAAN: 12.8376 deg

Eccentricy: 0.0800203

Argument of periapsis: 281.1118 deg

Mean anomaly: 70.1041 deg

Mean motion: 13.28859062 rev/day

Mean motion (dot): 0.00004376 rev/day2

B* drag term: 0.0015538 1/REarth

Two-line elements (TLE)

Creation date: Oct. 23, 2025, 10:16 p.m.

Reference frame: TEME

Reference center: EARTH

Epoch: Oct. 23, 2025, 6:58 a.m. UTC

TLE line 0: 0 COSMOS 886 DEB

TLE line 1: 1 9653U 76126K 25296.29074681 .00004376 00000-0 15538-2 0 9990

TLE line 2: 2 9653 65.7706 12.8376 0800203 281.1118 70.1041 13.28859062312540

Live tracking on map

Real-time ground track for satellite COSMOS 886 DEB.

In-orbit conjunctions

A list of the most updated potential collisions computed for object COSMOS 886 DEB.

Target Orbit TCA Probability of collision Miss distance Type
METEOR 3-3 LEO 2025-09-19 17:30:57 0.0001513577 650.0 (m) PAYLOAD
COSMOS 1375 DEB LEO 2025-02-12 08:27:07 0.0003844798 37.0 (m) DEBRIS

Associated space launch

Second generation ASAT satellite

COSMOS 886 DEB was lifted into orbit during the mission ‘Tsiklon-2 | IS-A 4’, on board a Tsiklon-2 space rocket.

The launch took place on Dec. 27, 1976, 12:05 p.m. from 90.

For more information about the launch, click the button.

Launch to space Tsiklon-2 | IS-A 4
Tsiklon-2 | IS-A 4

Agency: N/A

Status: Launch Successful

Launch date: Dec. 27, 1976, 12:05 p.m. UTC

Rocket: Tsiklon-2

Launch pad: 90

Location: Baikonur Cosmodrome, Republic of Kazakhstan

...

Latest news about this satellite

There are no fresh news available about this satellite. Check back as we update our databases every day.


Newsletter sign-up

Weekly statistics, charts and insights to help you stay on top of the space industry.